Location: Unspecified
(0.0000°N, 0.0000°E)
Time: 07:13:51
(UTC+00:00)

Vanguard 2 - Pass Details

Date: 08 December 2017
Orbit: 552 x 2940 km, 32.9° (Epoch: 16 January)

Event Time Altitude Azimuth Distance (km) Brightness Sun altitude
Exits shadow 04:17:17 12° 250° (WSW) 4,311 10.9 -21.7°
Maximum altitude 04:26:50 27° 201° (SSW) 3,943 11.1 -19.5°
Drops below altitude 10° 04:40:16 10° 149° (SSE) 5,728 12.8 -16.5°
Sets 04:46:13 0° 138° (SE) 6,796 13.6 -15.1°
